Date String (YYYY-MM-DD hh:mm:ss) UTC,Instrument flags,Ambient pressure (hPa),Sample flow (lpm),Bypass flow (lpm),Sample temperature (°C),Ambient temperature (°C),ASC tube jacket temperature (°C),LED temperature (°C),Box temperature (°C),Sample RH (%),Span deviation,Mass concentration (μg/m³),Mass concentration (μg/m³),Mass concentration (μg/m³)
DateTimeUTC,F1_M11,P_M11,Q1_M11,Q2_M11,T1_M11,T2_M11,T3_M11,T4_M11,T5_M11,U1_M11,ZSPAN_M11,X0_M11,X2_M11,X1_M11
2021-10-08 01:00:00,,0826.9,4.99,0.00,29.5,27.3,00.0,38.6,31.2,13.9,0000.0,0014.36,0003.69,0002.64
2021-10-08 01:01:00,,0826.9,5.00,0.00,29.5,27.7,00.0,38.6,31.2,13.9,0000.0,0014.71,0003.65,0002.61
2021-10-08 01:02:00,,0827.2,5.01,0.00,29.5,28.0,00.0,38.6,31.3,13.8,0000.0,0014.78,0003.65,0002.60
2021-10-08 01:03:00,,0827.0,5.01,0.00,29.5,28.2,00.0,38.6,31.3,13.8,0000.0,0014.01,0003.61,0002.60
2021-10-08 01:04:00,,0826.9,5.00,0.00,29.6,28.4,00.0,38.6,31.4,13.8,0000.0,0012.89,0003.56,0002.59
2021-10-08 01:05:00,,0827.0,5.00,0.00,29.6,28.6,00.0,38.6,31.5,13.8,0000.0,0012.74,0003.53,0002.58
2021-10-08 01:06:00,,0827.0,5.02,0.00,29.7,28.7,00.0,38.6,31.5,13.8,0000.0,0012.72,0003.54,0002.57
2021-10-08 01:07:00,,0827.0,5.00,0.00,29.7,28.8,00.0,38.6,31.6,13.8,0000.0,0013.10,0003.55,0002.56
2021-10-08 01:08:00,,0827.2,4.99,0.00,29.7,28.9,00.0,38.7,31.6,13.8,0000.0,0013.28,0003.57,0002.55
2021-10-08 01:09:00,,0827.2,5.01,0.00,29.8,29.0,00.0,38.7,31.7,13.7,0000.0,0013.27,0003.56,0002.57
2021-10-08 01:10:00,,0827.1,4.99,0.00,29.8,28.8,00.0,38.7,31.6,13.7,0000.0,0012.51,0003.52,0002.57
2021-10-08 01:11:00,,0827.3,5.00,0.00,29.7,27.1,00.0,38.7,31.1,13.8,0000.0,0011.77,0003.51,0002.57
2021-10-08 01:12:00,,0827.5,4.99,0.00,29.6,26.3,00.0,38.7,30.9,13.9,0000.0,0010.90,0003.52,0002.58
2021-10-08 01:13:00,,0827.3,4.99,0.00,29.5,26.6,00.0,38.7,31.0,14.1,0000.0,0010.64,0003.51,0002.58
2021-10-08 01:14:00,,0827.3,5.01,0.00,29.5,27.0,00.0,38.6,31.0,14.3,0000.0,0011.24,0003.49,0002.59
2021-10-08 01:15:00,,0827.2,5.01,0.00,29.5,27.3,00.0,38.6,31.1,14.5,0000.0,0011.61,0003.53,0002.62
2021-10-08 01:16:00,,0827.3,5.00,0.00,29.5,27.7,00.0,38.6,31.2,14.4,0000.0,0012.95,0003.57,0002.65
2021-10-08 01:17:00,,0827.4,4.99,0.00,29.5,28.0,00.0,38.6,31.3,14.5,0000.0,0013.68,0003.64,0002.68
2021-10-08 01:18:00,,0827.3,5.00,0.00,29.5,28.2,00.0,38.6,31.3,14.6,0000.0,0013.38,0003.71,0002.71
2021-10-08 01:19:00,,0827.1,4.99,0.00,29.6,28.4,00.0,38.6,31.4,14.7,0000.0,0013.79,0003.68,0002.73
2021-10-08 01:20:00,,0827.1,5.00,0.00,29.6,28.5,00.0,38.6,31.4,14.7,0000.0,0014.23,0003.69,0002.76
2021-10-08 01:21:00,,0827.2,5.00,0.00,29.6,28.6,00.0,38.6,31.5,14.6,0000.0,0014.79,0003.72,0002.80
2021-10-08 01:22:00,,0827.2,5.01,0.00,29.7,28.8,00.0,38.6,31.5,14.6,0000.0,0014.74,0003.75,0002.85
2021-10-08 01:23:00,,0827.1,5.00,0.00,29.7,28.8,00.0,38.7,31.6,14.6,0000.0,0015.29,0003.78,0002.89
2021-10-08 01:24:00,,0827.2,4.99,0.00,29.8,28.9,00.0,38.7,31.6,14.6,0000.0,0015.58,0003.83,0002.91
2021-10-08 01:25:00,,0827.2,5.00,0.00,29.8,29.0,00.0,38.7,31.7,14.4,0000.0,0014.39,0003.84,0002.93
2021-10-08 01:26:00,,0827.2,4.99,0.00,29.8,28.0,00.0,38.7,31.4,14.4,0000.0,0013.90,0003.86,0002.93
2021-10-08 01:27:00,,0827.2,5.00,0.00,29.6,26.4,00.0,38.7,31.0,14.5,0000.0,0013.41,0003.88,0002.94
2021-10-08 01:28:00,,0827.2,5.00,0.00,29.5,26.4,00.0,38.7,30.9,14.4,0000.0,0012.56,0003.90,0002.95
2021-10-08 01:29:00,,0827.2,5.01,0.00,29.5,26.7,00.0,38.6,31.0,14.6,0000.0,0012.42,0003.85,0002.96
2021-10-08 01:30:00,,0827.2,4.98,0.00,29.5,27.1,00.0,38.6,31.1,14.7,0000.0,0012.13,0003.84,0002.96
2021-10-08 01:31:00,,0827.2,5.01,0.00,29.5,27.5,00.0,38.6,31.2,14.7,0000.0,0012.16,0003.88,0002.99
2021-10-08 01:32:00,,0827.2,5.00,0.00,29.5,27.8,00.0,38.6,31.2,14.8,0000.0,0012.08,0003.91,0003.00
2021-10-08 01:33:00,,0827.2,5.00,0.00,29.5,28.1,00.0,38.6,31.3,15.1,0000.0,0012.00,0003.92,0003.01
2021-10-08 01:34:00,,0827.2,5.00,0.00,29.5,28.3,00.0,38.6,31.3,15.2,0000.0,0012.05,0003.96,0003.03
2021-10-08 01:35:00,,0827.2,4.99,0.00,29.6,28.4,00.0,38.6,31.4,15.3,0000.0,0011.65,0003.96,0003.06
2021-10-08 01:36:00,,0827.2,5.00,0.00,29.6,28.6,00.0,38.6,31.4,15.3,0000.0,0011.80,0003.98,0003.09
2021-10-08 01:37:00,,0827.2,5.01,0.00,29.7,28.7,00.0,38.6,31.5,15.0,0000.0,0012.87,0003.99,0003.12
2021-10-08 01:38:00,,0827.2,4.99,0.00,29.7,28.8,00.0,38.7,31.5,14.9,0000.0,0012.30,0003.96,0003.12
2021-10-08 01:39:00,,0827.2,5.01,0.00,29.7,28.8,00.0,38.7,31.6,14.8,0000.0,0012.10,0003.97,0003.14
2021-10-08 01:40:00,,0827.2,4.99,0.00,29.8,28.9,00.0,38.7,31.6,14.8,0000.0,0012.27,0003.99,0003.16
2021-10-08 01:41:00,,0827.1,5.00,0.00,29.8,29.0,00.0,38.7,31.7,14.6,0000.0,0013.01,0004.06,0003.18
2021-10-08 01:42:00,,0827.2,5.01,0.00,29.9,29.0,00.0,38.7,31.7,14.5,0000.0,0013.09,0004.07,0003.19
2021-10-08 01:43:00,,0827.2,5.01,0.00,29.9,28.1,00.0,38.8,31.5,14.6,0000.0,0013.25,0004.05,0003.20
2021-10-08 01:44:00,,0827.2,5.00,0.00,29.7,26.5,00.0,38.7,31.0,14.7,0000.0,0013.46,0004.09,0003.19
2021-10-08 01:45:00,,0827.1,5.00,0.00,29.6,26.4,00.0,38.7,31.0,14.8,0000.0,0012.87,0004.10,0003.20
2021-10-08 01:46:00,,0827.2,5.00,0.00,29.5,26.7,00.0,38.7,31.1,15.0,0000.0,0013.18,0004.09,0003.20
2021-10-08 01:47:00,,0827.2,4.98,0.00,29.5,27.1,00.0,38.7,31.1,15.3,0000.0,0013.26,0004.09,0003.21
2021-10-08 01:48:00,,0827.2,5.00,0.00,29.5,27.5,00.0,38.6,31.2,15.3,0000.0,0012.28,0004.10,0003.21
2021-10-08 01:49:00,,0827.2,5.01,0.00,29.5,27.8,00.0,38.6,31.3,15.0,0000.0,0012.11,0004.13,0003.22
2021-10-08 01:50:00,,0827.2,4.99,0.00,29.6,28.0,00.0,38.6,31.3,14.9,0000.0,0011.97,0004.13,0003.23
2021-10-08 01:51:00,,0827.2,5.01,0.00,29.6,28.2,00.0,38.6,31.4,15.2,0000.0,0011.92,0004.11,0003.23
2021-10-08 01:52:00,,0827.2,5.00,0.00,29.6,28.4,00.0,38.6,31.4,15.0,0000.0,0011.40,0004.05,0003.23
2021-10-08 01:53:00,,0827.2,5.00,0.00,29.6,28.5,00.0,38.7,31.5,14.9,0000.0,0010.94,0004.01,0003.23
2021-10-08 01:54:00,,0827.0,5.01,0.00,29.7,28.6,00.0,38.7,31.5,14.8,0000.0,0010.59,0004.00,0003.24
2021-10-08 01:55:00,,0827.1,5.00,0.00,29.7,28.7,00.0,38.7,31.5,14.8,0000.0,0010.64,0003.94,0003.24
2021-10-08 01:56:00,,0827.2,5.00,0.00,29.8,28.8,00.0,38.7,31.6,14.7,0000.0,0010.76,0003.93,0003.24
2021-10-08 01:57:00,,0827.1,5.00,0.00,29.8,28.9,00.0,38.7,31.6,14.9,0000.0,0011.22,0003.92,0003.24
2021-10-08 01:58:00,,0827.0,5.00,0.00,29.8,29.0,00.0,38.8,31.7,15.0,0000.0,0012.66,0003.96,0003.25
2021-10-08 01:59:00,,0827.1,5.00,0.00,29.9,29.0,00.0,38.8,31.7,15.1,0000.0,0013.24,0003.99,0003.26
